Location: Killam
(52.7910°N, 111.8608°W)
Time: 12:52:13
(UTC+00:00)

AO-73 - Pass Details

Date: 19 March 2026
Orbit: 514 x 567 km, 97.8° (Epoch: 13 April)

Event Time Altitude Azimuth Distance (km) Brightness Sun altitude
Rises 10:00:34 0° 31° (NNE) 2,662 ? -29.6°
Reaches altitude 10° 10:03:54 10° 63° (ENE) 1,758 ? -29.2°
Maximum altitude 10:05:27 12° 87° (E) 1,619 ? -29.1°
Enters shadow 10:06:47 11° 109° (ESE) 1,716 ? -28.9°
